SVA1032 OEJN-OERK

Flight info

Callsign SVA1032
Flight time 1h 14m
Altitude 37000
Route EGREP T532 ORDEM
Aircraft A320/M-SDE2E3FGHIRWY/L

Departure

Time 2026-04-28 22:03
Airport King Abdulaziz International Airport (OEJN)

Arrival

Time 2026-04-28 23:17
Airport King Khalid International Airport (OERK)
Time Latitude Longitude Altitude Speed Heading
2026-04-28 21:34 21.66603 39.17272 35 ft 0 kts 253°
2026-04-28 21:54 21.66605 39.17279 35 ft 2 kts 253°
2026-04-28 21:54 21.66613 39.17307 35 ft 3 kts 253°
2026-04-28 21:54 21.66617 39.17321 35 ft 3 kts 253°
2026-04-28 21:54 21.66623 39.17341 33 ft 3 kts 246°
2026-04-28 21:55 21.66632 39.17360 35 ft 3 kts 231°
2026-04-28 21:55 21.66646 39.17375 34 ft 3 kts 212°
2026-04-28 21:55 21.66659 39.17383 35 ft 1 kts 203°
2026-04-28 21:55 21.66660 39.17383 34 ft 0 kts 203°
2026-04-28 21:59 21.66658 39.17382 35 ft 3 kts 203°
2026-04-28 22:00 21.66531 39.17428 36 ft 11 kts 155°
2026-04-28 22:00 21.66486 39.17478 36 ft 8 kts 122°
2026-04-28 22:00 21.66486 39.17529 36 ft 6 kts 76°
2026-04-28 22:00 21.66498 39.17568 34 ft 5 kts 67°
2026-04-28 22:01 21.66522 39.17629 35 ft 15 kts 68°
2026-04-28 22:01 21.66554 39.17715 36 ft 14 kts 69°
2026-04-28 22:01 21.66596 39.17831 36 ft 18 kts 69°
2026-04-28 22:01 21.66632 39.17938 35 ft 14 kts 71°
2026-04-28 22:02 21.66677 39.18024 36 ft 13 kts 26°
2026-04-28 22:02 21.66774 39.18000 37 ft 20 kts 340°
2026-04-28 22:02 21.67075 39.17880 35 ft 80 kts 340°
2026-04-28 22:02 21.67789 39.17601 33 ft 136 kts 340°
2026-04-28 22:03 21.68819 39.17196 111 ft 172 kts 340°
2026-04-28 22:03 21.69948 39.16722 705 ft 177 kts 340°
2026-04-28 22:03 21.71132 39.16369 1406 ft 179 kts 349°
2026-04-28 22:03 21.72417 39.16126 1712 ft 199 kts 351°
2026-04-28 22:04 21.73871 39.16011 1915 ft 222 kts 11°
2026-04-28 22:04 21.75292 39.16821 2188 ft 246 kts 39°
2026-04-28 22:04 21.76682 39.18035 2584 ft 267 kts 37°
2026-04-28 22:04 21.78142 39.19292 3434 ft 269 kts 38°
2026-04-28 22:05 21.79576 39.20604 4272 ft 273 kts 39°
2026-04-28 22:05 21.81019 39.21959 5052 ft 278 kts 40°
2026-04-28 22:05 21.82483 39.23343 5809 ft 283 kts 40°
2026-04-28 22:05 21.83975 39.24751 6537 ft 288 kts 39°
2026-04-28 22:06 21.85495 39.26180 7259 ft 292 kts 40°
2026-04-28 22:06 21.87038 39.27627 7984 ft 296 kts 40°
2026-04-28 22:06 21.88605 39.29094 8670 ft 301 kts 40°
2026-04-28 22:06 21.90192 39.30582 9344 ft 305 kts 40°
2026-04-28 22:07 21.91804 39.32093 9840 ft 310 kts 40°
2026-04-28 22:07 21.93444 39.33627 10049 ft 316 kts 40°
2026-04-28 22:07 21.95132 39.35207 10435 ft 331 kts 41°
2026-04-28 22:07 21.96932 39.36894 10568 ft 354 kts 41°
2026-04-28 22:08 21.98819 39.38661 10718 ft 374 kts 41°
2026-04-28 22:08 22.00810 39.40522 11136 ft 383 kts 41°
2026-04-28 22:08 22.02837 39.42416 11676 ft 388 kts 41°
2026-04-28 22:08 22.04892 39.44337 12269 ft 393 kts 41°
2026-04-28 22:09 22.06967 39.46283 12862 ft 398 kts 41°
2026-04-28 22:09 22.09068 39.48258 13438 ft 403 kts 41°
2026-04-28 22:09 22.11192 39.50256 14007 ft 407 kts 41°
2026-04-28 22:09 22.13339 39.52276 14556 ft 412 kts 41°
2026-04-28 22:10 22.15513 39.54319 15092 ft 417 kts 41°
2026-04-28 22:10 22.17710 39.56384 15597 ft 421 kts 41°
2026-04-28 22:10 22.19931 39.58470 16123 ft 425 kts 41°
2026-04-28 22:10 22.22169 39.60573 16628 ft 429 kts 41°
2026-04-28 22:11 22.24434 39.62702 17116 ft 433 kts 41°
2026-04-28 22:11 22.26717 39.64847 17582 ft 438 kts 41°
2026-04-28 22:11 22.29020 39.67015 18019 ft 442 kts 41°
2026-04-28 22:11 22.31345 39.69208 18497 ft 445 kts 41°
2026-04-28 22:12 22.33690 39.71415 18944 ft 449 kts 40°
2026-04-28 22:12 22.36054 39.73638 19363 ft 453 kts 41°
2026-04-28 22:12 22.38439 39.75885 19780 ft 457 kts 40°
2026-04-28 22:12 22.40847 39.78156 20193 ft 461 kts 40°
2026-04-28 22:13 22.43269 39.80442 20591 ft 464 kts 40°
2026-04-28 22:13 22.45708 39.82750 20983 ft 467 kts 40°
2026-04-28 22:13 22.48166 39.85081 21355 ft 472 kts 40°
2026-04-28 22:13 22.50636 39.87431 21738 ft 475 kts 40°
2026-04-28 22:14 22.53122 39.89807 22108 ft 478 kts 40°
2026-04-28 22:14 22.55621 39.92200 22482 ft 481 kts 40°
2026-04-28 22:14 22.58138 39.94607 22827 ft 484 kts 40°
2026-04-28 22:14 22.60673 39.97031 23140 ft 488 kts 40°
2026-04-28 22:15 22.63224 39.99470 23485 ft 491 kts 40°
2026-04-28 22:15 22.65791 40.01928 23798 ft 494 kts 40°
2026-04-28 22:15 22.68373 40.04399 24099 ft 497 kts 40°
2026-04-28 22:15 22.70968 40.06885 24397 ft 500 kts 40°
2026-04-28 22:16 22.73578 40.09387 24703 ft 502 kts 40°
2026-04-28 22:16 22.76200 40.11899 25003 ft 504 kts 39°
2026-04-28 22:16 22.78830 40.14420 25313 ft 506 kts 39°
2026-04-28 22:16 22.81473 40.16955 25605 ft 508 kts 39°
2026-04-28 22:17 22.84121 40.19498 25891 ft 510 kts 39°
2026-04-28 22:17 22.86783 40.22055 26161 ft 512 kts 39°
2026-04-28 22:17 22.89456 40.24624 26439 ft 514 kts 39°
2026-04-28 22:17 22.92136 40.27200 26702 ft 516 kts 39°
2026-04-28 22:18 22.94830 40.29787 26945 ft 518 kts 39°
2026-04-28 22:18 22.97530 40.32380 27187 ft 519 kts 39°
2026-04-28 22:18 23.00238 40.34983 27403 ft 521 kts 38°
2026-04-28 22:18 23.02955 40.37604 27613 ft 523 kts 38°
2026-04-28 22:19 23.05679 40.40234 27816 ft 525 kts 38°
2026-04-28 22:19 23.08412 40.42875 28017 ft 527 kts 38°
2026-04-28 22:19 23.11156 40.45524 28225 ft 529 kts 38°
2026-04-28 22:19 23.13912 40.48185 28417 ft 530 kts 38°
2026-04-28 22:20 23.16672 40.50853 28611 ft 532 kts 38°
2026-04-28 22:20 23.19442 40.53531 28853 ft 532 kts 38°
2026-04-28 22:20 23.22206 40.56206 29138 ft 532 kts 38°
2026-04-28 22:20 23.24884 40.58989 29391 ft 535 kts 45°
2026-04-28 22:21 23.27172 40.62125 29625 ft 539 kts 54°
2026-04-28 22:21 23.29053 40.65654 29848 ft 542 kts 63°
2026-04-28 22:21 23.30486 40.69452 30071 ft 543 kts 69°
2026-04-28 22:21 23.31811 40.73296 30313 ft 543 kts 69°
2026-04-28 22:22 23.33147 40.77140 30575 ft 543 kts 69°
2026-04-28 22:22 23.34486 40.80977 30856 ft 542 kts 68°
2026-04-28 22:22 23.35822 40.84799 31155 ft 540 kts 69°
2026-04-28 22:22 23.37156 40.88616 31440 ft 539 kts 69°
2026-04-28 22:23 23.38485 40.92429 31716 ft 539 kts 69°
2026-04-28 22:23 23.39808 40.96244 31987 ft 538 kts 69°
2026-04-28 22:23 23.41123 41.00050 32261 ft 537 kts 69°
2026-04-28 22:23 23.42436 41.03859 32540 ft 537 kts 69°
2026-04-28 22:24 23.43744 41.07662 32826 ft 536 kts 69°
2026-04-28 22:24 23.45047 41.11458 33113 ft 535 kts 69°
2026-04-28 22:24 23.46350 41.15252 33396 ft 534 kts 69°
2026-04-28 22:24 23.47653 41.19037 33685 ft 533 kts 69°
2026-04-28 22:25 23.48957 41.22816 33965 ft 533 kts 69°
2026-04-28 22:25 23.50257 41.26589 34236 ft 532 kts 69°
2026-04-28 22:25 23.51554 41.30359 34495 ft 531 kts 69°
2026-04-28 22:25 23.52844 41.34121 34769 ft 530 kts 70°
2026-04-28 22:26 23.54128 41.37881 35035 ft 529 kts 70°
2026-04-28 22:26 23.55408 41.41633 35299 ft 528 kts 70°
2026-04-28 22:26 23.56688 41.45379 35544 ft 527 kts 69°
2026-04-28 22:26 23.57965 41.49111 35792 ft 526 kts 69°
2026-04-28 22:27 23.59240 41.52842 36017 ft 525 kts 69°
2026-04-28 22:27 23.60509 41.56568 36246 ft 524 kts 69°
2026-04-28 22:27 23.61777 41.60289 36447 ft 523 kts 69°
2026-04-28 22:27 23.63044 41.64003 36631 ft 523 kts 69°
2026-04-28 22:28 23.64311 41.67716 36841 ft 521 kts 69°
2026-04-28 22:28 23.65572 41.71418 36990 ft 520 kts 69°
2026-04-28 22:28 23.66830 41.75112 37021 ft 519 kts 69°
2026-04-28 22:29 23.69263 41.82497 37017 ft 516 kts 71°
2026-04-28 22:29 23.71585 41.89900 37017 ft 516 kts 71°
2026-04-28 22:30 23.73899 41.97312 37005 ft 516 kts 71°
2026-04-28 22:30 23.76286 42.04647 37014 ft 516 kts 69°
2026-04-28 22:31 23.78842 42.12007 37007 ft 522 kts 69°
2026-04-28 22:31 23.81455 42.19472 37008 ft 530 kts 69°
2026-04-28 22:32 23.84057 42.27055 37008 ft 535 kts 69°
2026-04-28 22:32 23.86637 42.34678 37008 ft 535 kts 70°
2026-04-28 22:33 23.89212 42.42317 36996 ft 536 kts 69°
2026-04-28 22:33 23.91797 42.49949 37003 ft 536 kts 69°
2026-04-28 22:34 23.94389 42.57598 37010 ft 537 kts 69°
2026-04-28 22:34 23.96977 42.65259 37020 ft 537 kts 69°
2026-04-28 22:35 23.99549 42.72920 37010 ft 537 kts 69°
2026-04-28 22:35 24.02118 42.80583 36994 ft 537 kts 69°
2026-04-28 22:36 24.04696 42.88257 36973 ft 538 kts 69°
2026-04-28 22:36 24.07265 42.95959 36969 ft 539 kts 70°
2026-04-28 22:37 24.09804 43.03692 36972 ft 541 kts 70°
2026-04-28 22:37 24.12333 43.11446 36975 ft 541 kts 70°
2026-04-28 22:38 24.14872 43.19204 36979 ft 542 kts 70°
2026-04-28 22:38 24.17424 43.26971 36988 ft 542 kts 70°
2026-04-28 22:39 24.19961 43.34744 36995 ft 542 kts 70°
2026-04-28 22:39 24.22502 43.42518 36996 ft 542 kts 70°
2026-04-28 22:40 24.25027 43.50287 36979 ft 540 kts 70°
2026-04-28 22:40 24.27541 43.58038 36980 ft 540 kts 70°
2026-04-28 22:41 24.30037 43.65736 36981 ft 539 kts 70°
2026-04-28 22:41 24.32546 43.73471 36979 ft 538 kts 70°
2026-04-28 22:41 24.33780 43.77296 36976 ft 526 kts 70°
2026-04-28 22:42 24.34993 43.81060 36971 ft 521 kts 70°
2026-04-28 22:42 24.37396 43.88533 36970 ft 519 kts 70°
2026-04-28 22:43 24.39401 43.94791 36969 ft 519 kts 70°
2026-04-28 22:43 24.41801 44.02259 36970 ft 518 kts 70°
2026-04-28 22:44 24.44195 44.09717 36971 ft 519 kts 70°
2026-04-28 22:44 24.45857 44.17409 36959 ft 519 kts 80°
2026-04-28 22:44 24.46526 44.21302 36718 ft 519 kts 80°
2026-04-28 22:45 24.47200 44.25197 36467 ft 519 kts 79°
2026-04-28 22:45 24.47882 44.29092 36217 ft 520 kts 79°
2026-04-28 22:45 24.48568 44.32997 35967 ft 523 kts 79°
2026-04-28 22:45 24.49241 44.36875 35720 ft 525 kts 80°
2026-04-28 22:46 24.49920 44.40825 35469 ft 529 kts 80°
2026-04-28 22:46 24.50602 44.44802 35220 ft 531 kts 80°
2026-04-28 22:46 24.51291 44.48793 34970 ft 533 kts 80°
2026-04-28 22:46 24.51982 44.52791 34714 ft 534 kts 80°
2026-04-28 22:47 24.52675 44.56803 34472 ft 536 kts 80°
2026-04-28 22:47 24.53370 44.60827 34227 ft 537 kts 80°
2026-04-28 22:47 24.54063 44.64859 33960 ft 538 kts 80°
2026-04-28 22:47 24.54758 44.68909 32941 ft 544 kts 80°
2026-04-28 22:48 24.55461 44.73020 31966 ft 549 kts 80°
2026-04-28 22:48 24.56164 44.77146 30957 ft 552 kts 80°
2026-04-28 22:48 24.56866 44.81285 30205 ft 549 kts 81°
2026-04-28 22:48 24.57559 44.85379 28749 ft 545 kts 81°
2026-04-28 22:49 24.58251 44.89482 27280 ft 544 kts 81°
2026-04-28 22:49 24.58936 44.93528 26270 ft 531 kts 81°
2026-04-28 22:49 24.59603 44.97449 25625 ft 520 kts 81°
2026-04-28 22:49 24.60266 45.01352 24887 ft 518 kts 82°
2026-04-28 22:50 24.60922 45.05226 24166 ft 514 kts 82°
2026-04-28 22:50 24.61572 45.09071 23441 ft 509 kts 82°
2026-04-28 22:50 24.62214 45.12881 22715 ft 505 kts 82°
2026-04-28 22:50 24.62847 45.16658 22011 ft 501 kts 82°
2026-04-28 22:51 24.63472 45.20409 21307 ft 496 kts 82°
2026-04-28 22:51 24.64088 45.24123 20610 ft 492 kts 82°
2026-04-28 22:51 24.64700 45.27809 19919 ft 488 kts 82°
2026-04-28 22:51 24.65298 45.31408 19243 ft 483 kts 82°
2026-04-28 22:52 24.65900 45.35016 18565 ft 478 kts 82°
2026-04-28 22:52 24.66493 45.38589 17892 ft 472 kts 82°
2026-04-28 22:52 24.67074 45.42119 17276 ft 466 kts 82°
2026-04-28 22:52 24.67646 45.45605 16609 ft 462 kts 82°
2026-04-28 22:53 24.68214 45.49051 16085 ft 454 kts 82°
2026-04-28 22:53 24.68766 45.52404 15917 ft 436 kts 82°
2026-04-28 22:53 24.69292 45.55570 15778 ft 406 kts 82°
2026-04-28 22:53 24.69786 45.58517 15649 ft 379 kts 82°
2026-04-28 22:54 24.70251 45.61283 15466 ft 358 kts 83°
2026-04-28 22:54 24.70688 45.63927 15033 ft 347 kts 83°
2026-04-28 22:54 24.71106 45.66519 14807 ft 340 kts 83°
2026-04-28 22:54 24.71339 45.69086 14812 ft 339 kts 91°
2026-04-28 22:55 24.71421 45.71693 14369 ft 340 kts 91°
2026-04-28 22:55 24.71500 45.74271 14076 ft 334 kts 91°
2026-04-28 22:55 24.71579 45.76811 13454 ft 331 kts 91°
2026-04-28 22:55 24.71658 45.79319 12905 ft 325 kts 91°
2026-04-28 22:56 24.71737 45.81782 12476 ft 319 kts 91°
2026-04-28 22:56 24.71815 45.84223 12053 ft 320 kts 91°
2026-04-28 22:56 24.71889 45.86655 11759 ft 316 kts 91°
2026-04-28 22:56 24.71964 45.89055 11409 ft 312 kts 91°
2026-04-28 22:57 24.72041 45.91427 10884 ft 308 kts 90°
2026-04-28 22:57 24.72119 45.93763 10705 ft 304 kts 89°
2026-04-28 22:57 24.72196 45.96079 10519 ft 302 kts 89°
2026-04-28 22:57 24.72267 45.98379 10331 ft 301 kts 89°
2026-04-28 22:58 24.72337 46.00671 10143 ft 299 kts 89°
2026-04-28 22:58 24.72408 46.02955 9955 ft 298 kts 89°
2026-04-28 22:58 24.72479 46.05221 9770 ft 295 kts 89°
2026-04-28 22:58 24.72547 46.07471 9586 ft 294 kts 88°
2026-04-28 22:59 24.72610 46.09709 9403 ft 292 kts 88°
2026-04-28 22:59 24.72672 46.11937 9218 ft 291 kts 88°
2026-04-28 22:59 24.72735 46.14155 9039 ft 290 kts 88°
2026-04-28 22:59 24.72800 46.16357 8926 ft 287 kts 88°
2026-04-28 23:00 24.72866 46.18556 8818 ft 287 kts 87°
2026-04-28 23:00 24.72935 46.20749 8750 ft 287 kts 87°
2026-04-28 23:00 24.73005 46.22938 8655 ft 287 kts 87°
2026-04-28 23:00 24.73075 46.25134 8567 ft 287 kts 87°
2026-04-28 23:01 24.73140 46.27322 8484 ft 286 kts 87°
2026-04-28 23:01 24.73203 46.29491 8196 ft 281 kts 88°
2026-04-28 23:01 24.73265 46.31649 8082 ft 284 kts 87°
2026-04-28 23:01 24.73328 46.33818 7959 ft 283 kts 87°
2026-04-28 23:02 24.73386 46.35981 7827 ft 283 kts 87°
2026-04-28 23:02 24.73446 46.38134 7705 ft 282 kts 86°
2026-04-28 23:02 24.73754 46.40222 7580 ft 280 kts 72°
2026-04-28 23:02 24.74555 46.42163 7455 ft 279 kts 59°
2026-04-28 23:03 24.75538 46.44000 7330 ft 279 kts 59°
2026-04-28 23:03 24.76515 46.45836 7204 ft 279 kts 59°
2026-04-28 23:03 24.77491 46.47678 7079 ft 278 kts 59°
2026-04-28 23:03 24.78461 46.49522 6967 ft 273 kts 60°
2026-04-28 23:04 24.79379 46.51271 6970 ft 256 kts 59°
2026-04-28 23:04 24.81059 46.54464 6976 ft 234 kts 59°
2026-04-28 23:04 24.81876 46.56021 6977 ft 233 kts 59°
2026-04-28 23:05 24.82682 46.57560 6974 ft 233 kts 60°
2026-04-28 23:05 24.83361 46.59177 6972 ft 234 kts 75°
2026-04-28 23:05 24.83507 46.60963 6978 ft 235 kts 95°
2026-04-28 23:05 24.83080 46.62695 6975 ft 237 kts 115°
2026-04-28 23:06 24.82106 46.64161 6970 ft 240 kts 136°
2026-04-28 23:06 24.80721 46.65183 6965 ft 243 kts 149°
2026-04-28 23:06 24.79240 46.66101 6959 ft 243 kts 149°
2026-04-28 23:06 24.77771 46.67023 6959 ft 243 kts 148°
2026-04-28 23:07 24.76307 46.67948 6958 ft 243 kts 148°
2026-04-28 23:07 24.74841 46.68877 6961 ft 243 kts 148°
2026-04-28 23:07 24.73377 46.69802 6960 ft 243 kts 148°
2026-04-28 23:07 24.71912 46.70726 6958 ft 243 kts 148°
2026-04-28 23:08 24.70450 46.71645 6958 ft 242 kts 148°
2026-04-28 23:08 24.69010 46.72552 6958 ft 233 kts 148°
2026-04-28 23:08 24.67626 46.73436 6832 ft 227 kts 144°
2026-04-28 23:08 24.66565 46.74659 6550 ft 217 kts 117°
2026-04-28 23:09 24.66135 46.76175 6392 ft 202 kts 92°
2026-04-28 23:09 24.66303 46.77648 6257 ft 189 kts 69°
2026-04-28 23:09 24.66892 46.78890 6126 ft 179 kts 59°
2026-04-28 23:09 24.67499 46.80039 5997 ft 170 kts 59°
2026-04-28 23:10 24.68072 46.81138 5827 ft 164 kts 59°
2026-04-28 23:10 24.68682 46.82223 5456 ft 169 kts 51°
2026-04-28 23:10 24.69541 46.83102 5148 ft 170 kts 34°
2026-04-28 23:10 24.70613 46.83643 4859 ft 170 kts 17°
2026-04-28 23:11 24.71788 46.83796 4571 ft 171 kts 359°
2026-04-28 23:11 24.72954 46.83548 4290 ft 172 kts 343°
2026-04-28 23:11 24.74111 46.83130 3905 ft 181 kts 344°
2026-04-28 23:11 24.75316 46.82701 3937 ft 182 kts 344°
2026-04-28 23:12 24.76520 46.82269 3948 ft 182 kts 344°
2026-04-28 23:12 24.77727 46.81838 3954 ft 182 kts 344°
2026-04-28 23:12 24.78932 46.81405 3957 ft 182 kts 344°
2026-04-28 23:12 24.80136 46.80974 3958 ft 182 kts 344°
2026-04-28 23:13 24.81311 46.80443 3958 ft 183 kts 336°
2026-04-28 23:13 24.82441 46.79801 3955 ft 180 kts 334°
2026-04-28 23:13 24.83481 46.79163 3959 ft 162 kts 333°
2026-04-28 23:13 24.84435 46.78567 3958 ft 154 kts 333°
2026-04-28 23:14 24.85359 46.77986 3941 ft 152 kts 333°
2026-04-28 23:14 24.86275 46.77410 3818 ft 151 kts 333°
2026-04-28 23:14 24.87182 46.76838 3650 ft 150 kts 333°
2026-04-28 23:14 24.88086 46.76268 3464 ft 149 kts 333°
2026-04-28 23:15 24.88985 46.75701 3267 ft 150 kts 330°
2026-04-28 23:15 24.89892 46.75128 3081 ft 150 kts 330°
2026-04-28 23:15 24.90797 46.74557 2875 ft 150 kts 330°
2026-04-28 23:15 24.91686 46.73996 2674 ft 149 kts 330°
2026-04-28 23:16 24.92583 46.73431 2506 ft 148 kts 331°
2026-04-28 23:16 24.93479 46.72869 2288 ft 148 kts 329°
2026-04-28 23:16 24.94365 46.72301 2091 ft 147 kts 330°
2026-04-28 23:16 24.95195 46.71775 2038 ft 117 kts 330°
2026-04-28 23:17 24.95749 46.71426 2031 ft 65 kts 330°
2026-04-28 23:17 24.95923 46.71285 2035 ft 10 kts 309°
2026-04-28 23:17 24.95962 46.71232 2031 ft 8 kts 309°
2026-04-28 23:17 24.95994 46.71164 2030 ft 10 kts 288°
2026-04-28 23:18 24.96010 46.71099 2030 ft 8 kts 272°
2026-04-28 23:18 24.96000 46.71047 2033 ft 6 kts 254°
2026-04-28 23:18 24.95986 46.71009 2033 ft 5 kts 240°
2026-04-28 23:18 24.95972 46.70982 2030 ft 3 kts 240°
2026-04-28 23:19 24.95950 46.70939 2035 ft 7 kts 240°
2026-04-28 23:19 24.95929 46.70898 2034 ft 5 kts 240°
2026-04-28 23:19 24.95912 46.70866 2039 ft 5 kts 240°
2026-04-28 23:19 24.95895 46.70834 2032 ft 4 kts 240°
2026-04-28 23:20 24.95879 46.70803 2034 ft 7 kts 240°
2026-04-28 23:20 24.95857 46.70762 2036 ft 5 kts 240°
2026-04-28 23:20 24.95840 46.70731 2040 ft 4 kts 240°
2026-04-28 23:20 24.95828 46.70708 2033 ft 3 kts 240°
2026-04-28 23:21 24.95815 46.70682 2035 ft 8 kts 240°
2026-04-28 23:21 24.95795 46.70643 2035 ft 4 kts 240°
2026-04-28 23:21 24.95783 46.70620 2034 ft 3 kts 240°
2026-04-28 23:21 24.95776 46.70605 2036 ft 2 kts 240°
2026-04-28 23:22 24.95769 46.70593 2038 ft 4 kts 240°
2026-04-28 23:22 24.95758 46.70582 2036 ft 2 kts 202°
2026-04-28 23:22 24.95743 46.70576 2030 ft 1 kts 199°
2026-04-28 23:22 24.95736 46.70574 2030 ft 0 kts 197°
2026-04-28 23:23 24.95735 46.70574 2030 ft 0 kts 197°
2026-04-28 23:23 24.95729 46.70572 2030 ft 3 kts 195°
2026-04-28 23:23 24.95709 46.70567 2038 ft 1 kts 193°
2026-04-28 23:23 24.95704 46.70566 2030 ft 0 kts 193°
2026-04-28 23:24 24.95698 46.70564 2033 ft 0 kts 193°
2026-04-28 23:24 24.95695 46.70564 2030 ft 0 kts 193°
2026-04-28 23:24 24.95693 46.70563 2035 ft 0 kts 193°
2026-04-28 23:24 24.95692 46.70563 2030 ft 1 kts 193°
2026-04-28 23:25 24.95691 46.70562 2030 ft 0 kts 193°